Lapse_Rate
5.8 5.7 6.3 6.2 5.7 7.6 8.0 8.0 8.0 8.0 7.9 7.7 7.6 7.8 7.8 7.3 6.7 9.0 8.6 8.9 9.4 8.3 8.2 9.6 9.4 9.2 9.1 8.3 8.5 8.3 6.5 6.5 6.5 6.5 6.5 7.2 6.6 7.7 8.2 7.6 7.9 8.0 7.8 8.4 8.4
5.5 6.0 5.9 6.5 6.1 6.6 8.5 8.0 8.2 7.9 7.6 7.5 7.9 8.0 7.6 6.8 9.1 8.8 9.1 8.0 8.3 8.6 9.4 8.7 8.2 8.5 7.9 7.8 7.7 6.8 6.5 6.5 6.5 6.5 6.5 6.8 6.9 7.2 7.1 7.1 7.3 7.5 8.0 8.7 8.4
6.5 5.9 5.5 6.0 6.8 6.5 8.0 8.1 8.2 7.9 7.4 7.4 7.6 7.6 7.2 7.1 8.5 8.4 8.2 8.3 8.6 8.5 9.6 9.2 8.9 8.3 7.3 7.6 7.2 6.9 6.5 6.5 6.7 7.2 7.3 6.8 6.8 7.6 6.8 6.5 7.3 7.1 7.8 8.0 8.2
6.8 6.5 5.6 5.7 5.9 6.6 8.2 8.4 8.3 8.0 7.4 7.3 7.6 7.2 7.2 9.1 6.5 9.2 9.3 9.5 8.9 9.7 9.4 8.8 8.4 7.4 6.7 6.5 7.5 6.5 6.9 7.0 7.0 7.4 7.1 6.5 7.4 6.9 7.2 7.2 8.1 8.2 8.3 8.2 7.8
7.1 6.4 5.8 5.5 5.4 5.8 6.5 8.4 8.5 8.2 7.7 7.2 7.6 7.5 7.9 8.0 7.9 9.5 8.5 8.6 9.8 9.6 8.8 8.4 7.7 7.4 6.5 6.7 7.0 6.5 6.5 7.3 7.5 7.3 7.3 7.5 6.8 6.8 7.1 8.0 8.3 8.3 8.2 7.9 7.7
7.3 7.0 6.0 5.2 4.9 4.7 5.9 7.7 8.3 7.8 7.6 7.4 7.7 7.4 8.8 6.7 9.5 9.7 9.7 9.5 9.6 9.2 8.8 8.6 8.0 8.1 7.2 6.8 6.6 7.0 6.9 7.0 7.3 7.1 7.3 6.7 6.7 7.1 7.4 8.2 8.0 8.0 8.0 8.2 8.2
7.4 6.7 5.5 4.6 5.3 5.1 7.9 7.9 8.2 7.1 7.6 7.9 8.0 9.3 8.4 7.9 9.8 9.7 9.1 9.5 9.7 9.4 8.5 8.9 8.8 7.9 7.6 6.5 7.6 7.2 6.5 6.5 6.6 6.9 6.6 7.2 6.5 6.5 7.6 7.9 7.7 7.8 8.0 8.1 8.2
7.7 7.2 6.7 5.0 5.6 6.4 6.9 6.6 7.1 6.9 7.5 8.1 7.8 9.2 7.6 9.0 9.7 9.0 9.8 9.4 9.8 9.7 9.2 9.3 9.1 8.2 7.6 7.7 7.1 6.5 6.5 6.5 6.5 6.5 6.8 6.7 6.5 6.5 7.6 7.5 7.3 7.7 7.9 8.0 8.1
7.8 7.1 7.0 5.8 6.1 5.5 6.9 7.2 6.0 7.1 7.6 8.0 8.5 8.5 7.1 8.3 8.7 9.6 9.8 8.8 9.2 9.3 9.3 9.4 8.7 7.6 7.4 6.5 6.5 6.5 6.5 6.5 6.5 6.5 6.5 6.5 6.5 6.5 7.5 7.3 7.1 7.5 7.8 7.9 7.9
7.5 7.3 6.9 6.4 5.7 6.4 7.8 7.9 7.6 8.0 8.7 9.1 8.9 7.6 8.2 7.7 8.9 9.3 9.7 9.3 8.5 8.4 8.0 7.8 7.4 6.5 6.5 6.5 6.5 6.5 6.5 6.5 6.5 6.5 6.5 6.5 6.5 6.5 7.1 7.1 6.9 7.3 7.6 7.6 7.9
7.2 6.8 6.4 6.0 5.4 6.5 7.9 8.2 8.1 7.8 8.5 7.5 7.5 7.5 8.0 8.9 9.3 8.8 9.3 8.8 8.5 7.7 6.5 6.9 6.5 6.5 6.5 6.5 6.5 6.5 6.5 6.5 6.5 6.5 6.5 6.5 6.5 6.5 6.6 6.8 6.7 7.0 7.2 7.5 7.7
7.0 5.5 5.9 5.4 6.1 7.4 8.7 8.4 8.0 7.6 6.8 8.3 8.2 8.2 8.6 8.8 7.4 8.2 9.2 7.5 7.1 6.5 6.5 6.5 6.5 6.5 6.5 6.5 6.5 6.5 6.5 6.5 6.5 6.5 6.5 6.5 6.5 6.5 6.5 6.5 6.8 6.8 7.1 7.5 7.8
6.9 5.9 6.0 5.8 6.4 7.0 8.2 8.8 6.9 7.5 6.8 7.3 8.1 7.9 8.0 8.4 7.3 7.4 8.4 7.7 6.5 6.5 6.5 6.5 6.5 6.5 6.5 6.5 6.5 6.5 6.5 6.5 6.5 6.5 6.5 6.5 6.5 6.5 6.5 6.7 7.0 7.2 7.5 7.7 7.7
7.8 5.8 5.9 5.8 6.7 8.4 8.3 8.0 7.0 7.1 6.5 6.5 6.8 7.6 8.1 8.1 6.8 8.5 8.6 7.7 6.6 6.5 6.5 6.5 6.5 6.5 6.5 6.5 6.5 6.5 6.5 6.5 6.5 6.5 6.5 6.5 6.5 6.5 6.5 6.5 6.5 6.9 7.2 7.5 7.8
7.5 7.0 5.8 6.9 8.3 8.4 7.9 7.2 7.1 7.6 6.5 6.5 6.7 8.3 8.2 7.1 7.3 7.4 8.8 7.7 6.5 6.5 6.5 6.5 6.5 6.5 6.5 6.5 6.5 6.5 6.5 6.5 6.5 6.5 6.5 6.5 6.5 6.5 6.5 6.5 6.5 6.5 7.0 7.3 7.8
7.0 6.8 6.3 6.6 8.2 7.4 7.0 7.1 7.9 6.5 6.5 6.5 6.8 6.5 6.5 6.9 6.9 7.5 7.4 8.1 7.7 6.5 6.5 6.5 7.1 6.5 6.5 6.5 6.5 6.5 6.5 6.5 6.5 6.5 6.5 6.5 6.5 6.5 6.5 6.5 6.5 6.5 6.8 7.2 7.5
7.2 6.7 6.0 8.5 8.2 6.8 7.2 7.9 6.5 6.5 6.5 6.5 6.5 6.5 6.5 6.5 6.5 6.5 6.5 6.5 6.5 6.5 6.5 6.5 6.5 6.5 6.6 6.5 6.5 6.5 6.5 6.5 6.5 6.5 6.5 6.5 6.5 6.5 6.5 6.5 6.5 6.5 6.8 7.2 7.6
6.6 6.6 5.6 7.0 6.8 6.8 8.3 6.6 6.5 6.5 6.5 6.5 6.5 6.5 6.5 6.5 6.5 6.5 6.5 6.5 6.5 6.5 6.5 6.5 6.5 6.5 6.5 6.5 6.5 6.5 6.5 6.5 6.5 6.5 6.5 6.5 6.5 6.5 6.5 6.6 6.8 7.0 7.0 7.3 7.4
6.2 5.7 5.1 5.5 7.0 8.1 7.6 6.5 6.5 6.5 6.5 6.5 6.5 6.5 6.5 6.5 6.5 6.5 6.5 6.5 6.5 6.5 6.5 6.5 6.5 6.5 6.5 6.5 6.5 6.5 6.5 6.5 6.5 6.5 6.5 6.5 6.5 6.5 6.5 6.5 6.5 6.7 6.9 7.0 6.8
6.2 6.4 6.0 6.4 7.8 8.8 6.6 6.5 6.5 6.5 6.5 6.5 6.5 6.5 6.5 6.5 6.5 6.5 6.5 6.5 6.5 6.5 6.6 6.5 6.5 6.5 6.5 6.6 6.5 6.5 6.5 6.5 6.5 6.5 6.5 6.5 6.5 6.5 6.5 6.5 6.5 6.5 6.6 6.9 6.7
6.7 6.8 5.4 5.8 8.7 7.6 6.5 6.5 6.5 7.0 6.9 6.5 6.5 6.5 6.5 6.5 6.5 6.5 6.5 6.5 6.5 6.5 6.5 6.5 6.5 6.5 6.5 6.5 6.5 6.5 6.5 6.5 6.5 6.5 6.5 6.5 6.5 6.5 6.5 6.5 6.5 6.5 6.7 6.7 6.6
6.9 6.5 5.6 5.8 6.7 6.7 6.5 6.5 6.7 6.6 7.2 6.5 6.5 6.5 6.5 6.5 6.5 6.5 6.5 6.5 6.9 6.7 6.5 6.5 6.5 6.5 6.5 6.5 6.5 6.5 6.5 6.5 6.5 6.5 6.5 6.5 6.5 6.5 6.5 6.5 6.6 6.7 6.9 6.3 6.6
6.8 6.8 6.0 6.4 6.5 6.5 6.5 6.5 6.6 6.5 6.5 6.5 6.5 6.5 6.5 6.5 6.5 6.5 6.5 6.8 6.9 6.5 6.5 6.5 6.5 6.5 6.5 6.5 6.5 6.5 6.5 6.5 6.5 6.5 6.5 6.5 6.5 6.5 6.5 6.5 6.8 6.7 7.0 6.2 6.4
6.4 6.5 6.6 6.8 7.6 6.5 6.5 6.5 6.5 7.0 6.5 6.7 6.5 6.6 6.5 6.5 6.5 6.5 6.5 6.5 6.9 6.8 6.9 6.8 6.5 6.5 6.5 6.5 6.5 6.5 6.5 6.5 6.5 6.5 6.5 6.5 6.5 6.5 6.5 6.5 6.6 7.0 7.2 7.4 6.9
7.2 6.7 7.4 6.5 6.6 6.5 6.5 6.5 6.5 6.5 6.7 6.9 6.5 6.5 6.5 6.5 6.5 6.5 6.5 6.5 6.6 6.8 6.6 6.5 6.5 6.5 6.5 6.5 6.5 6.5 6.5 6.5 6.5 6.5 6.5 6.5 6.5 6.5 6.5 6.5 6.7 7.2 7.3 7.3 7.6
7.3 6.9 7.5 6.8 7.1 6.5 6.5 6.5 6.5 6.5 6.5 6.5 6.5 6.5 6.5 6.5 6.5 6.5 6.5 6.5 6.5 6.5 6.5 6.5 6.5 6.5 6.5 6.5 6.5 6.5 6.5 6.5 6.5 6.5 6.5 6.5 6.5 6.5 6.9 7.2 7.0 7.1 7.2 7.2 7.4
8.3 7.3 7.8 6.9 6.5 6.5 6.5 6.5 6.5 6.5 6.8 6.9 6.6 6.5 6.5 6.5 7.0 7.1 7.2 7.0 6.6 6.5 6.5 6.5 6.5 6.5 6.5 6.5 6.5 6.5 6.5 6.5 6.5 6.5 6.5 6.5 6.5 6.5 6.5 6.6 7.0 7.2 7.4 7.4 7.6
Wind_Speed
15 13 12 11 9 10 10 9 10 8 6 4 2 4 6 8 7 9 10 1 3 6 7 4 6 5 5 8 10 9 11 16 22 23 22 19 22 19 21 21 29 24 21 18 8
15 15 15 12 10 8 11 10 9 9 4 1 3 5 4 5 10 9 2 3 7 8 11 9 6 4 7 9 6 12 13 22 20 19 19 20 21 23 22 19 26 26 17 20 8
17 20 15 13 10 8 10 9 8 7 3 3 1 3 4 8 8 2 6 9 10 8 6 6 6 8 11 11 13 13 18 20 20 19 19 18 20 20 22 22 23 23 26 25 23
22 17 16 13 9 9 9 9 8 6 5 3 1 1 4 6 3 7 3 4 5 2 4 7 9 11 11 15 15 19 22 21 21 20 19 20 20 24 24 25 22 25 23 23 23
24 27 19 14 10 8 7 8 8 6 7 4 2 0 3 5 7 10 4 4 4 4 8 9 10 10 15 12 14 18 20 22 22 21 20 20 23 26 26 26 24 24 25 22 15
24 26 16 16 13 11 9 5 6 5 6 5 4 2 6 6 3 5 4 2 3 5 5 6 7 7 12 16 17 16 19 21 21 19 20 21 24 24 25 27 28 25 25 24 21
23 21 8 16 15 11 8 5 4 5 4 4 6 4 5 6 1 3 3 3 3 7 7 5 5 7 7 12 12 14 20 21 21 19 24 23 28 28 33 25 27 28 24 25 21
22 22 12 14 14 10 8 8 6 8 3 3 4 2 5 1 4 5 5 7 7 7 8 7 5 10 14 11 16 17 16 19 22 20 23 21 20 27 25 24 27 29 26 21 22
22 21 15 17 13 14 10 8 11 7 6 6 4 1 3 4 6 3 5 7 5 5 6 6 6 12 13 12 11 14 15 21 22 21 19 16 17 23 23 20 26 25 27 22 18
22 22 17 19 16 9 9 9 12 13 8 3 1 3 4 3 2 2 5 6 8 6 7 7 7 11 11 8 12 14 14 19 20 20 12 20 19 23 21 20 21 24 22 19 19
23 26 24 20 18 15 16 8 6 3 5 5 4 1 3 2 2 5 5 8 9 8 10 8 7 11 18 16 19 16 19 23 23 22 22 22 19 20 22 14 17 17 15 17 14
25 31 8 17 15 17 8 5 2 3 5 11 3 4 2 1 4 5 4 6 8 10 8 7 14 17 14 16 15 18 21 26 25 22 19 22 25 15 17 16 15 14 14 16 14
23 11 20 12 10 9 10 6 2 3 3 6 6 4 2 4 4 4 5 4 10 12 12 14 15 9 13 14 17 19 20 25 24 24 21 23 24 19 18 20 14 11 12 15 16
13 1 15 14 8 5 8 6 5 0 2 7 6 4 4 1 4 2 2 6 4 8 9 12 10 9 11 16 14 20 20 25 24 17 13 13 5 16 16 12 13 15 12 14 16
13 10 14 21 7 6 5 8 4 2 2 8 5 3 2 4 2 6 3 5 10 11 5 6 7 11 15 18 8 11 13 11 13 10 8 12 6 2 14 9 10 9 12 11 12
11 10 17 5 1 4 10 6 2 2 3 5 4 4 4 4 3 2 4 5 7 8 11 18 18 13 12 14 14 15 10 14 7 4 5 8 10 3 1 9 8 5 5 0 3
9 4 11 6 3 11 8 5 2 3 4 6 4 5 3 3 3 3 3 4 2 5 1 8 8 6 2 8 6 6 11 3 5 6 1 0 6 5 7 5 5 9 9 7 3
17 12 4 2 13 11 6 3 5 3 3 3 4 7 2 4 4 3 2 2 4 1 5 5 2 4 2 3 5 8 6 4 5 3 4 9 5 6 9 3 14 10 7 7 12
6 3 3 1 10 4 4 4 3 3 6 8 7 3 4 5 4 3 3 4 2 0 4 5 3 3 3 3 2 7 5 9 6 2 2 3 1 5 16 15 15 11 8 13 14
2 2 2 8 6 6 3 3 2 3 7 10 3 6 6 6 4 1 1 3 3 2 2 4 5 2 2 4 8 4 9 3 1 6 4 5 6 6 14 15 13 14 13 14 15
2 2 3 2 5 5 3 0 2 4 4 5 2 3 2 4 2 1 2 1 4 6 4 4 4 7 4 4 4 4 3 5 4 3 4 3 5 9 13 11 12 12 12 14 14
2 2 3 2 3 3 4 1 1 8 3 2 1 1 4 5 3 1 2 2 5 4 5 3 4 4 4 3 5 7 9 4 4 5 6 6 6 11 15 15 14 15 15 13 12
3 2 3 4 3 4 2 2 1 4 5 2 2 2 2 4 2 4 3 3 4 5 7 9 5 3 5 4 5 5 14 3 3 2 13 5 4 13 17 19 16 10 13 13 13
3 3 1 2 2 2 4 3 3 2 4 1 1 2 4 4 1 4 1 2 4 5 8 5 5 5 6 5 5 7 14 12 3 8 12 13 14 17 17 17 15 13 15 14 14
1 3 5 4 5 4 4 4 6 3 1 3 2 4 1 2 4 3 2 4 1 3 2 3 3 5 7 7 12 12 16 18 13 14 9 14 17 13 13 14 15 14 14 15 17
2 3 2 0 7 9 4 4 7 4 5 4 4 5 4 0 3 3 4 1 2 5 3 3 2 4 6 8 12 15 17 15 14 15 15 16 15 10 12 12 14 14 14 15 15
2 0 3 4 8 8 5 5 7 6 1 4 3 5 3 4 1 5 4 5 3 5 6 4 2 2 3 2 5 5 12 9 13 13 10 10 9 10 12 14 14 14 14 14 13
Wind_Direction
259 260 258 260 268 280 282 281 289 284 284 273 261 303 311 304 270 250 256 335 268 169 234 171 201 197 223 230 239 244 248 245 253 261 272 273 268 260 260 255 264 255 255 262 30
252 252 254 248 259 271 282 284 282 290 298 259 249 306 318 306 279 265 130 176 210 200 209 218 205 205 229 229 207 226 237 248 261 271 275 276 269 266 265 258 244 256 268 258 293
310 250 240 248 248 260 270 282 279 297 193 167 323 324 315 293 279 156 138 212 214 217 217 196 201 219 233 239 225 238 250 269 272 271 275 278 279 276 265 251 266 254 244 249 265
328 296 235 228 222 243 257 268 270 289 199 151 212 0 294 267 308 118 166 83 119 218 212 216 221 224 243 248 239 256 259 267 278 280 283 277 274 269 266 263 259 271 265 252 229
326 329 235 200 203 241 248 266 278 268 193 157 171 230 254 233 256 137 141 136 176 194 224 226 248 246 257 265 262 261 266 270 272 275 270 269 263 260 260 262 255 248 269 280 271
322 325 242 187 194 215 240 225 274 283 186 177 170 189 253 255 71 162 161 176 236 213 207 230 251 285 283 272 270 271 278 286 280 272 276 267 264 261 256 247 257 255 250 259 262
320 330 216 177 201 213 212 214 255 150 188 211 179 220 254 256 197 167 181 234 243 250 252 234 280 259 284 279 263 275 277 274 267 263 258 255 258 253 251 253 241 250 246 252 250
323 318 309 208 198 201 199 193 157 143 178 235 184 197 263 136 237 221 216 241 222 245 257 277 255 273 272 276 284 275 277 272 274 268 259 228 253 255 247 239 244 238 241 248 250
317 315 319 211 210 192 191 161 129 146 159 165 173 215 254 159 221 213 224 237 218 236 246 251 256 255 271 253 276 259 260 274 284 280 257 228 250 262 252 249 233 235 236 242 258
309 310 289 230 195 186 165 152 135 136 132 157 60 223 229 190 161 210 226 243 245 244 237 233 241 252 245 242 258 285 289 289 288 288 301 296 286 267 263 235 233 230 230 234 251
311 303 292 196 176 173 140 134 142 144 175 199 188 334 140 162 223 214 217 223 234 243 263 251 263 251 245 248 247 263 267 273 276 278 275 268 268 257 249 250 242 231 231 238 228
315 306 191 157 166 173 193 222 105 79 142 219 201 238 238 302 246 207 218 228 215 248 235 248 250 259 268 270 276 272 274 271 279 273 264 272 267 246 240 224 227 228 229 224 228
341 115 133 139 178 160 219 219 133 206 103 171 201 203 163 239 270 189 224 243 259 262 255 251 261 284 269 270 271 266 262 270 269 286 279 267 252 247 233 226 220 243 246 232 225
324 231 140 160 145 220 209 176 195 48 147 141 183 152 181 262 237 185 227 276 238 268 280 269 283 274 276 272 270 272 263 254 260 264 259 207 248 207 219 216 240 247 234 235 213
307 314 174 178 108 194 111 167 148 256 269 142 137 97 141 241 29 189 192 240 267 273 255 278 311 293 279 278 278 252 296 271 261 261 261 222 274 158 191 217 245 237 249 235 224
300 303 185 213 170 97 140 137 201 202 214 150 135 182 197 190 177 294 235 221 278 285 264 261 276 284 261 295 274 270 265 256 233 262 250 190 206 71 284 226 223 200 210 4 336
315 182 175 195 177 153 147 142 205 241 122 158 177 190 153 196 228 237 222 242 338 321 316 305 245 260 297 290 284 295 279 246 174 198 123 215 107 47 14 329 90 81 49 16 41
313 204 99 31 130 144 151 225 216 107 166 117 147 164 159 161 265 218 260 315 152 229 301 320 299 324 86 272 307 302 291 327 351 34 87 28 46 22 28 109 93 66 43 26 28
8 99 84 86 140 184 197 239 39 133 147 144 131 150 172 217 257 250 221 333 3 303 322 319 329 292 222 231 259 320 321 333 310 134 81 7 164 269 32 66 53 28 22 41 26
113 81 109 153 155 188 242 298 105 120 116 155 156 199 180 210 216 246 27 58 353 284 162 327 293 329 48 242 228 291 320 327 282 0 63 21 52 1 16 48 60 17 42 34 20
91 132 113 144 191 177 242 358 132 148 129 182 200 188 189 184 203 114 12 133 20 327 302 279 262 353 343 351 314 333 357 319 290 3 346 33 38 357 29 56 54 28 36 35 12
103 104 134 271 144 193 225 202 51 146 130 122 338 14 214 169 144 150 272 303 34 300 311 338 297 315 284 279 278 300 321 328 328 56 18 77 46 32 52 60 62 25 37 26 29
98 91 56 303 168 201 148 150 102 144 158 129 179 269 222 188 112 133 230 300 327 322 341 348 356 296 307 148 22 356 9 35 8 341 30 58 65 47 52 52 64 58 29 20 19
137 117 94 271 273 268 168 168 127 62 124 111 44 210 200 179 29 150 218 317 1 323 322 298 20 6 48 38 342 347 41 52 55 70 84 71 79 51 47 55 54 58 61 49 32
212 130 159 180 210 227 231 160 144 141 204 198 188 238 248 165 152 145 125 300 271 323 275 327 61 49 63 64 50 45 53 60 58 70 71 80 65 57 55 52 53 52 46 55 50
123 132 169 62 172 204 198 191 180 126 167 181 269 163 152 52 8 158 133 135 338 321 9 344 95 92 76 62 63 55 31 54 50 80 95 86 74 76 62 60 48 49 45 41 41
104 16 226 146 168 198 200 156 183 155 172 341 254 153 156 75 45 55 66 94 61 354 349 4 340 306 123 308 291 39 11 29 57 46 44 69 54 61 62 59 48 42 46 42 38